TimeCEST,TemperatureF,Dew PointF,Humidity,Sea Level PressureIn,VisibilityMPH,Wind Direction,Wind SpeedMPH,Gust SpeedMPH,PrecipitationIn,Events,Conditions,WindDirDegrees,DateUTC
12:00 AM,39.2,32.0,75,29.65,-9999.0,North,3.5,-,N/A,,Clear,350,2012-04-13 22:00:00
12:30 AM,39.2,33.8,81,29.65,-9999.0,North,1.2,-,N/A,,Clear,360,2012-04-13 22:30:00
1:00 AM,39.2,33.8,81,29.65,-9999.0,NW,4.6,-,N/A,,Clear,320,2012-04-13 23:00:00
1:30 AM,39.2,33.8,81,29.65,-9999.0,Variable,2.3,-,N/A,,Clear,0,2012-04-13 23:30:00
2:00 AM,38,34,78,29.70,6,NNW,2.2,,,,Mist,330,2012-04-14 00:00:00
2:00 AM,37.4,33.8,87,29.65,5.6,NNW,4.6,-,N/A,,Unknown,330,2012-04-14 00:00:00
2:30 AM,35.6,33.8,93,29.65,5.0,NNW,3.5,-,N/A,,Unknown,330,2012-04-14 00:30:00
3:00 AM,37.4,33.8,87,29.65,5.0,NW,2.3,-,N/A,,Unknown,310,2012-04-14 01:00:00
3:30 AM,37.4,33.8,87,29.65,5.0,NW,3.5,-,N/A,,Unknown,320,2012-04-14 01:30:00
4:00 AM,35.6,32.0,87,29.65,5.0,NW,3.5,-,N/A,,Unknown,310,2012-04-14 02:00:00
4:30 AM,37.4,32.0,81,29.65,5.0,NW,2.3,-,N/A,,Unknown,320,2012-04-14 02:30:00
5:00 AM,37.4,32.0,81,29.65,5.0,North,2.3,-,N/A,,Unknown,350,2012-04-14 03:00:00
5:30 AM,35.6,32.0,87,29.65,4.3,NW,3.5,-,N/A,,Unknown,320,2012-04-14 03:30:00
6:00 AM,35.6,32.0,87,29.62,3.7,NNW,4.6,-,N/A,,Unknown,330,2012-04-14 04:00:00
6:30 AM,35.6,32.0,87,29.62,3.1,NW,3.5,-,N/A,,Mist,320,2012-04-14 04:30:00
7:00 AM,35.6,33.8,93,29.62,2.8,NNW,3.5,-,N/A,,Mist,340,2012-04-14 05:00:00
7:30 AM,37.4,33.8,87,29.65,2.5,NW,3.5,-,N/A,,Mist,310,2012-04-14 05:30:00
8:00 AM,39,35,80,29.69,4,North,6.7,,,,Mist,350,2012-04-14 06:00:00
8:00 AM,39.2,35.6,87,29.65,3.7,NNW,6.9,-,N/A,,Unknown,330,2012-04-14 06:00:00
8:30 AM,39.2,35.6,87,29.65,4.3,NNW,5.8,-,N/A,,Unknown,340,2012-04-14 06:30:00
9:00 AM,42.8,37.4,81,29.65,5.0,North,8.1,-,N/A,,Unknown,350,2012-04-14 07:00:00
9:30 AM,42.8,37.4,81,29.65,5.0,North,6.9,-,N/A,,Unknown,350,2012-04-14 07:30:00
10:00 AM,44.6,35.6,71,29.65,5.6,North,6.9,-,N/A,,Unknown,350,2012-04-14 08:00:00
10:30 AM,46.4,35.6,66,29.65,6.2,NNW,4.6,-,N/A,,Partly Cloudy,340,2012-04-14 08:30:00
11:00 AM,46.4,35.6,66,29.65,6.2,North,5.8,-,N/A,,Partly Cloudy,350,2012-04-14 09:00:00
11:30 AM,48.2,33.8,58,29.62,6.2,NNE,4.6,-,N/A,,Partly Cloudy,30,2012-04-14 09:30:00
12:00 PM,50.0,33.8,54,29.62,6.2,ENE,6.9,-,N/A,,Partly Cloudy,60,2012-04-14 10:00:00
12:30 PM,50.0,32.0,50,29.62,6.2,North,9.2,-,N/A,,Partly Cloudy,10,2012-04-14 10:30:00
1:00 PM,51.8,30.2,44,29.62,6.2,NNE,8.1,-,N/A,,Partly Cloudy,30,2012-04-14 11:00:00
1:30 PM,51.8,28.4,41,29.59,6.2,NNE,9.2,-,N/A,,Partly Cloudy,30,2012-04-14 11:30:00
2:00 PM,53,33,34,29.61,16,NE,11.2,,,,Scattered Clouds,40,2012-04-14 12:00:00
2:00 PM,53.6,32.0,44,29.59,6.2,NE,9.2,-,N/A,,Partly Cloudy,40,2012-04-14 12:00:00
2:30 PM,53.6,32.0,44,29.59,6.2,ENE,8.1,-,N/A,,Partly Cloudy,60,2012-04-14 12:30:00
3:00 PM,55.4,32.0,41,29.59,6.2,NE,8.1,-,N/A,,Partly Cloudy,40,2012-04-14 13:00:00
3:30 PM,55.4,30.2,38,29.59,6.2,ENE,10.4,-,N/A,,Partly Cloudy,70,2012-04-14 13:30:00
4:00 PM,55.4,32.0,41,29.56,6.2,ENE,6.9,-,N/A,,Partly Cloudy,60,2012-04-14 14:00:00
4:30 PM,55.4,32.0,41,29.56,6.2,ENE,10.4,-,N/A,,Partly Cloudy,60,2012-04-14 14:30:00
5:00 PM,55.4,33.8,44,29.56,-9999.0,NNE,12.7,-,N/A,,Clear,20,2012-04-14 15:00:00
5:30 PM,53.6,33.8,47,29.56,-9999.0,NNE,11.5,-,N/A,,Clear,30,2012-04-14 15:30:00
6:00 PM,53.6,35.6,51,29.56,6.2,NNE,13.8,-,N/A,,Mostly Cloudy,20,2012-04-14 16:00:00
6:30 PM,53.6,35.6,51,29.56,6.2,NNE,13.8,-,N/A,,Mostly Cloudy,20,2012-04-14 16:30:00
7:00 PM,53.6,35.6,51,29.56,6.2,NNE,15.0,-,N/A,,Mostly Cloudy,30,2012-04-14 17:00:00
7:30 PM,51.8,35.6,54,29.56,6.2,NNE,16.1,-,N/A,,Mostly Cloudy,30,2012-04-14 17:30:00
8:00 PM,50,36,48,29.60,12,NNE,13.4,,,,Mostly Cloudy,20,2012-04-14 18:00:00
8:00 PM,50.0,35.6,58,29.59,6.2,NNE,15.0,-,N/A,,Mostly Cloudy,30,2012-04-14 18:00:00
8:30 PM,50.0,37.4,62,29.59,6.2,NNE,11.5,-,N/A,,Mostly Cloudy,20,2012-04-14 18:30:00
9:00 PM,50.0,37.4,62,29.59,6.2,NE,9.2,-,N/A,,Mostly Cloudy,40,2012-04-14 19:00:00
9:30 PM,50.0,35.6,58,29.59,6.2,ENE,9.2,-,N/A,,Mostly Cloudy,60,2012-04-14 19:30:00
10:00 PM,48.2,35.6,62,29.59,6.2,NE,8.1,-,N/A,,Scattered Clouds,40,2012-04-14 20:00:00
10:30 PM,46.4,35.6,66,29.59,6.2,NE,6.9,-,N/A,,Scattered Clouds,40,2012-04-14 20:30:00
11:00 PM,46.4,37.4,71,29.59,6.2,NNE,4.6,-,N/A,,Mostly Cloudy,30,2012-04-14 21:00:00
11:30 PM,46.4,35.6,66,29.59,6.2,North,5.8,-,N/A,,Mostly Cloudy,10,2012-04-14 21:30:00